Weather History for KLEB - January, 2014

Change the Weather History Date:

Thursday, January 2, 2014

  Actual Average Record
Temperature  
Mean Temperature 4 °F -  
Max Temperature 6 °F 30 °F 50 °F (1942)
Min Temperature 1 °F 13 °F -23 °F (1968)
Degree Days  
Heating Degree Days 62    
Moisture  
Dew Point -2 °F    
Average Humidity 74    
Maximum Humidity 80    
Minimum Humidity 66    
Precipitation  
Precipitation 0.20 in - - ()
Sea Level Pressure  
Sea Level Pressure 30.19 in    
Wind  
Wind Speed 7 mph (NNE)    
Max Wind Speed 13 mph    
Max Gust Speed -    
Visibility 2 miles    
Events Snow    
Averages and records for this station are not official NWS values.
T = Trace of Precipitation, MM = Missing Value Source: NWS Daily Summary

Daily Weather History Graph

Daily Weather History Graph

Search for Another Location

Airport or City:

Trip Planner

Search our weather history database for the weather conditions in past years. The results will help you decide how hot, cold, wet, or windy it might be!

Date:

Astronomy

Jan. 02, 2014 Rise Set
Actual Time 7:22 AM EST 4:24 PM EST
Civil Twilight 6:50 AM EST 4:56 PM EST
Nautical Twilight 6:14 AM EST 5:32 PM EST
Astronomical Twilight 5:39 AM EST 6:07 PM EST
Moon 7:58 AM EST (1/2) 6:21 PM EST (1/2)
Length of Visible Light 10h 06m
Length of Day
9h 01m
New Moon, 2% of the Moon is Illuminated
Jan 2
New Moon
Jan 7
First Quarter
Jan 15
Full
Jan 24
Last Quarter
Jan 30
New

Hourly Weather History & Observations

Time (EST) Temp. Windchill Dew Point Humidity Pressure Visibility Wind Dir Wind Speed Gust Speed Precip Events Conditions
12:53 AM 6.1 °F -10.2 °F -2.9 °F 67% 30.41 in 10.0 mi NE 12.7 mph - N/A   Overcast
1:53 AM 5.0 °F -8.1 °F -4.0 °F 66% 30.41 in 10.0 mi NE 8.1 mph - N/A   Overcast
2:53 AM 3.9 °F -9.4 °F -5.1 °F 66% 30.42 in 6.0 mi NNE 8.1 mph - 0.00 in Snow Light Snow
3:43 AM 3.9 °F -12.2 °F -4.0 °F 70% 30.34 in 2.5 mi NE 11.5 mph - 0.00 in Snow Light Snow
3:53 AM 3.0 °F -11.5 °F -4.0 °F 73% 30.40 in 3.0 mi NE 9.2 mph - 0.00 in Snow Light Snow
4:08 AM 3.0 °F -10.5 °F -4.0 °F 73% 30.34 in 2.5 mi NE 8.1 mph - 0.00 in Snow Light Snow
4:35 AM 3.0 °F -9.3 °F -4.0 °F 73% 30.34 in 3.0 mi NE 6.9 mph - 0.00 in Snow Light Snow
4:48 AM 3.2 °F -7.8 °F -4.0 °F 72% 30.34 in 2.0 mi NE 5.8 mph - 0.00 in Snow Light Snow
4:53 AM 3.0 °F -9.3 °F -4.0 °F 73% 30.40 in 1.5 mi NE 6.9 mph - 0.00 in Snow Light Snow
5:12 AM 3.0 °F -8.0 °F -4.0 °F 73% 30.33 in 1.2 mi NE 5.8 mph - 0.01 in Snow Light Snow
5:53 AM 3.0 °F -8.0 °F -2.9 °F 76% 30.40 in 1.0 mi NE 5.8 mph - 0.02 in Snow Light Snow
6:32 AM 1.9 °F -10.6 °F -4.0 °F 76% 30.34 in 1.0 mi NE 6.9 mph - 0.01 in Snow Light Snow
6:53 AM 1.9 °F -10.6 °F -4.0 °F 76% 30.41 in 1.0 mi NNE 6.9 mph - 0.02 in Snow Light Snow
7:24 AM 1.9 °F -9.2 °F -4.0 °F 76% 30.33 in 1.0 mi NNE 5.8 mph - 0.01 in Snow Light Snow
7:53 AM 1.9 °F -7.6 °F -4.0 °F 76% 30.40 in 1.2 mi NNE 4.6 mph - 0.03 in Snow Light Snow
8:30 AM 1.9 °F -9.2 °F -5.1 °F 72% 30.33 in 0.8 mi NNE 5.8 mph - 0.00 in Snow Light Snow
8:53 AM 1.9 °F -9.2 °F -5.1 °F 72% 30.40 in 0.8 mi NNE 5.8 mph - 0.01 in Snow Light Snow
9:29 AM 3.0 °F -9.3 °F -5.1 °F 69% 30.32 in 1.0 mi North 6.9 mph - 0.01 in Snow Light Snow
9:50 AM 3.2 °F -9.1 °F -5.8 °F 66% 30.30 in 0.8 mi NNE 6.9 mph - 0.01 in Snow Light Snow
9:53 AM 3.0 °F -8.0 °F -5.1 °F 69% 30.37 in 0.8 mi NNE 5.8 mph - 0.01 in Snow Light Snow
10:13 AM 3.0 °F -10.5 °F -5.1 °F 69% 30.30 in 1.0 mi NNE 8.1 mph - 0.00 in Snow Light Snow
10:27 AM 3.0 °F -8.0 °F -4.0 °F 73% 30.28 in 0.8 mi NNE 5.8 mph - 0.00 in Snow Light Snow
10:53 AM 3.9 °F -8.2 °F -4.0 °F 70% 30.33 in 0.8 mi NE 6.9 mph - 0.01 in Snow Light Snow
11:53 AM 3.9 °F -8.2 °F -2.9 °F 73% 30.27 in 0.8 mi NNE 6.9 mph - 0.01 in Snow Light Snow
12:09 PM 5.0 °F -6.9 °F -2.9 °F 70% 30.19 in 1.2 mi NNE 6.9 mph - 0.00 in Snow Light Snow
12:47 PM 5.0 °F -8.1 °F -2.2 °F 72% 30.16 in 0.8 mi NNE 8.1 mph - 0.01 in Snow Light Snow
12:53 PM 5.0 °F -6.9 °F -2.0 °F 73% 30.22 in 0.8 mi NNE 6.9 mph - 0.01 in Snow Light Snow
1:23 PM 5.0 °F -5.6 °F -0.9 °F 76% 30.14 in 1.0 mi North 5.8 mph - 0.01 in Snow Light Snow
1:35 PM 5.0 °F -6.9 °F -2.0 °F 73% 30.14 in 0.8 mi NNE 6.9 mph - 0.01 in Snow Light Snow
1:53 PM 5.0 °F -4.1 °F -2.0 °F 73% 30.21 in 1.5 mi Variable 4.6 mph - 0.01 in Snow Light Snow
2:09 PM 5.0 °F -6.9 °F -2.0 °F 73% 30.13 in 0.5 mi NE 6.9 mph - 0.01 in Snow Snow
2:22 PM 5.0 °F -5.6 °F -2.0 °F 73% 30.12 in 0.5 mi NNE 5.8 mph - 0.02 in Snow Snow
2:53 PM 6.1 °F -4.3 °F -0.9 °F 73% 30.18 in 0.5 mi NNE 5.8 mph - 0.03 in Snow Snow
3:22 PM 6.1 °F -2.8 °F -0.9 °F 73% 30.09 in 0.5 mi NE 4.6 mph - 0.01 in Snow Snow
3:53 PM 6.1 °F -2.8 °F -0.9 °F 73% 30.15 in 1.0 mi NNW 4.6 mph - 0.04 in Snow Light Snow
4:09 PM 5.0 °F -5.6 °F -0.9 °F 76% 30.08 in 1.2 mi North 5.8 mph - 0.00 in Snow Light Snow
4:20 PM 5.0 °F -2.1 °F -0.0 °F 80% 30.07 in 1.5 mi North 3.5 mph - 0.00 in Snow Light Snow
4:53 PM 5.0 °F -4.1 °F -0.0 °F 80% 30.14 in 1.5 mi NW 4.6 mph - 0.00 in Snow Light Snow
5:10 PM 6.1 °F -2.8 °F -0.0 °F 76% 30.07 in 2.0 mi North 4.6 mph - 0.00 in Snow Light Snow
5:18 PM 6.1 °F - -0.0 °F 76% 30.07 in 1.5 mi Calm Calm - 0.00 in Snow Light Snow
5:53 PM 6.1 °F -0.9 °F -0.0 °F 76% 30.13 in 1.5 mi NNE 3.5 mph - 0.00 in Snow Light Snow
6:08 PM 6.1 °F -2.8 °F -0.0 °F 76% 30.05 in 2.0 mi North 4.6 mph - 0.00 in Snow Light Snow
6:20 PM 6.1 °F -0.9 °F -0.0 °F 76% 30.05 in 3.0 mi NNW 3.5 mph - 0.00 in Snow Light Snow
6:29 PM 6.1 °F -0.9 °F -0.0 °F 76% 30.04 in 1.8 mi North 3.5 mph - 0.00 in Snow Light Snow
6:40 PM 6.1 °F -4.3 °F -0.0 °F 76% 30.03 in 1.0 mi NNE 5.8 mph - 0.00 in Snow Light Snow
6:53 PM 6.1 °F -0.9 °F -0.0 °F 76% 30.10 in 2.0 mi North 3.5 mph - 0.00 in Snow Light Snow
7:08 PM 6.1 °F -4.3 °F -0.0 °F 76% 30.03 in 1.5 mi NNE 5.8 mph - 0.00 in Snow Light Snow
7:49 PM 6.8 °F -0.1 °F -0.4 °F 72% 30.02 in 1.2 mi NNE 3.5 mph - 0.00 in Snow Light Snow
7:53 PM 6.1 °F -2.8 °F -0.0 °F 76% 30.09 in 1.2 mi NNE 4.6 mph - 0.00 in Snow Light Snow
8:02 PM 6.1 °F -2.8 °F -0.0 °F 76% 30.02 in 0.8 mi NNE 4.6 mph - 0.00 in Snow Light Snow
8:27 PM 6.1 °F -2.8 °F -0.0 °F 76% 30.00 in 1.0 mi NNE 4.6 mph - 0.00 in Snow Light Snow
8:49 PM 6.8 °F -0.1 °F -0.4 °F 72% 29.99 in 1.2 mi NE 3.5 mph - 0.00 in Snow Light Snow
8:53 PM 6.1 °F -2.8 °F -0.0 °F 76% 30.05 in 1.2 mi NE 4.6 mph - 0.00 in Snow Light Snow
9:20 PM 6.1 °F -0.9 °F -0.9 °F 73% 29.96 in 1.8 mi ENE 3.5 mph - 0.00 in Snow Light Snow
9:53 PM 5.0 °F -4.1 °F -0.9 °F 76% 30.03 in 1.5 mi NE 4.6 mph - 0.00 in Snow Light Snow
10:20 PM 5.0 °F -5.6 °F -0.9 °F 76% 29.95 in 1.0 mi ENE 5.8 mph - 0.00 in Snow Light Snow
10:53 PM 5.0 °F -5.6 °F -0.9 °F 76% 30.00 in 1.0 mi NE 5.8 mph - 0.00 in Snow Light Snow
11:24 PM 5.0 °F -2.1 °F -0.9 °F 76% 29.92 in 1.0 mi NE 3.5 mph - 0.00 in Snow Light Snow
11:53 PM 3.9 °F -5.3 °F -0.9 °F 80% 29.97 in 0.8 mi NW 4.6 mph - 0.00 in Snow Light Snow